User: anonymous   Login
Location: Unspecified
(0.0000°N, 0.0000°E)
Time: 11:51:18
(UTC+00:00)
Language:

BEEAGLESAT - Orbit

View from above orbital plane
View from above orbital plane
View from above satellite
View from above satellite

Ground track
Ground track

The orbit data is extracted from the following two-line orbital elements,

1 42736U 98067MR  18347.76912330  .00041082  00000-0  21912-3 0  9999
2 42736  51.6299 157.1069 0005546 196.4463 163.6360 15.79957455 88703
Epoch (UTC): 13 December 2018 18:27:32
Eccentricity: 0.0005546
inclination: 51.6299°
perigee height: 327 km
apogee height: 334 km
right ascension of ascending node: 157.1069°
argument of perigee: 196.4463°
revolutions per day: 15.79957455
mean anomaly at epoch: 163.6360°
orbit number at epoch: 8870

The dashed part of the orbit path shows where the satellite is in the earth's shadow,  

DLR